Indian Mountain, AK

1:29 AM AKST on November 22, 2017 (GMT -0900)
Indian Mountain

Weather History for PAIM - October, 2012

Change the Weather History Date:

Sunday, October 7, 2012

  Actual Average Record
Temperature  
Mean Temperature 34 °F -  
Max Temperature 38 °F 28 °F 41 °F (2004)
Min Temperature 32 °F 19 °F 10 °F (1998)
Degree Days  
Heating Degree Days 30    
Moisture  
Dew Point 33 °F    
Average Humidity 89    
Maximum Humidity 100    
Minimum Humidity 81    
Precipitation  
Precipitation 0.11 in - - ()
Sea Level Pressure  
Sea Level Pressure 30.24 in    
Wind  
Wind Speed 2 mph (WSW)    
Max Wind Speed 6 mph    
Max Gust Speed -    
Visibility 10 miles    
Events Rain    
Averages and records for this station are not official NWS values.
T = Trace of Precipitation, MM = Missing Value Source: NWS Daily Summary

Daily Weather History Graph

Daily Weather History Graph

Search for Another Location

Airport or City:

Trip Planner

Search our weather history database for the weather conditions in past years. The results will help you decide how hot, cold, wet, or windy it might be!

Date:

Astronomy

Oct. 07, 2012 Rise Set
Actual Time 8:47 AM AKDT 7:16 PM AKDT
Civil Twilight 7:55 AM AKDT 8:07 PM AKDT
Nautical Twilight 6:56 AM AKDT 9:06 PM AKDT
Astronomical Twilight 5:52 AM AKDT 10:09 PM AKDT
Moon 10:51 PM AKDT (10/7) 5:22 PM AKDT (10/7)
Length of Visible Light 12h 11m
Length of Day
10h 28m
Waning Gibbous, 55% of the Moon is Illuminated
Oct 7
Waning Gibbous
Oct 7
Last Quarter
Oct 15
New
Oct 21
First Quarter
Oct 29
Full

Hourly Weather History & Observations

Time (AKDT) Temp. Windchill Dew Point Humidity Pressure Visibility Wind Dir Wind Speed Gust Speed Precip Events Conditions
12:00 AM 37.4 °F - 32.0 °F 81% 30.22 in 10.0 mi Variable 1.2 mph - N/A Rain Light Rain
12:55 AM 36.1 °F - 32.9 °F 88% 30.22 in 10.0 mi Calm Calm - 0.02 in Rain Light Rain
1:55 AM 34.9 °F - 33.3 °F 94% 30.23 in 7.0 mi NW 1.2 mph - 0.03 in Rain Light Rain
2:55 AM 34.3 °F - 33.1 °F 95% 30.24 in 10.0 mi Variable 1.2 mph - 0.02 in   Overcast
3:55 AM 34.7 °F - 33.3 °F 94% 30.24 in 9.0 mi West 1.2 mph - N/A Rain Light Rain Showers
4:20 AM 33.8 °F - 33.8 °F 100% 30.25 in 6.0 mi Variable 1.2 mph - N/A Rain Rain
4:55 AM 34.5 °F - 33.1 °F 94% 30.25 in 8.0 mi Calm Calm - 0.04 in Rain Light Rain
5:55 AM 34.5 °F - 33.3 °F 95% 30.25 in 10.0 mi Variable 2.3 mph - N/A   Overcast
6:40 AM 35.6 °F - 33.8 °F 93% 30.26 in 10.0 mi WSW 2.3 mph - N/A   Overcast
6:55 AM 35.8 °F - 33.1 °F 90% 30.26 in 10.0 mi SW 2.3 mph - N/A   Overcast
7:20 AM 35.6 °F 32.8 °F 33.8 °F 93% 30.26 in 10.0 mi West 3.5 mph - N/A   Overcast
7:55 AM 35.2 °F - 32.9 °F 91% 30.25 in 10.0 mi SSW 1.2 mph - N/A   Mostly Cloudy
8:55 AM 33.8 °F - 32.0 °F 93% 30.19 in 10.0 mi Variable 1.2 mph - N/A   Scattered Clouds
6:31 PM 37.4 °F 34.9 °F 32.0 °F 81% 30.25 in 10.0 mi SW 3.5 mph - N/A   Clear
6:45 PM 37.4 °F 34.9 °F 32.0 °F 81% 30.25 in 10.0 mi SW 3.5 mph - N/A   Mostly Cloudy
6:55 PM 37.8 °F 34.2 °F 32.4 °F 81% 30.25 in 10.0 mi SW 4.6 mph - N/A   Mostly Cloudy
7:45 PM 37.4 °F 32.8 °F 32.0 °F 81% 30.24 in 10.0 mi SSW 5.8 mph - N/A   Overcast
7:55 PM 37.0 °F - 32.7 °F 84% 30.24 in 10.0 mi Variable 2.3 mph - N/A   Overcast
8:26 PM 37.4 °F - 32.0 °F 81% 30.25 in 10.0 mi West 1.2 mph - N/A   Mostly Cloudy
8:55 PM 35.4 °F - 32.2 °F 88% 30.25 in 10.0 mi Variable 1.2 mph - N/A   Mostly Cloudy
9:55 PM 36.1 °F - 31.3 °F 83% 30.24 in 10.0 mi West 2.3 mph - N/A   Scattered Clouds
10:06 PM 35.6 °F - 32.0 °F 87% 30.24 in 10.0 mi WNW 2.3 mph - N/A   Partly Cloudy
10:55 PM 32.0 °F - 30.6 °F 94% 30.26 in 10.0 mi Variable 1.2 mph - N/A   Mostly Cloudy
11:55 PM 34.5 °F 31.6 °F 30.9 °F 87% 30.26 in 10.0 mi West 3.5 mph - N/A   Overcast